TimeEST,TemperatureF,Dew PointF,Humidity,Sea Level PressureIn,VisibilityMPH,Wind Direction,Wind SpeedMPH,Gust SpeedMPH,PrecipitationIn,Events,Conditions,WindDirDegrees,DateUTC
12:53 AM,50.0,50.0,100,29.91,0.2,Calm,Calm,-,N/A,Fog,Fog,0,2013-12-06 05:53:00
1:53 AM,51.1,51.1,100,29.89,0.2,Calm,Calm,-,N/A,Fog,Fog,0,2013-12-06 06:53:00
2:53 AM,51.1,51.1,100,29.89,0.2,SSW,3.5,-,N/A,Fog,Fog,200,2013-12-06 07:53:00
3:53 AM,52.0,52.0,100,29.88,1.0,SW,4.6,-,0.01,,Mist,220,2013-12-06 08:53:00
4:10 AM,52.0,52.0,100,29.91,1.8,North,-9999.0,-,0.03,Rain,Rain,0,2013-12-06 09:10:00
4:17 AM,48.9,48.0,97,29.91,3.0,NW,13.8,19.6,0.05,Rain,Rain,310,2013-12-06 09:17:00
4:26 AM,46.9,46.0,97,29.92,6.0,NW,10.4,19.6,0.06,Rain,Light Rain,320,2013-12-06 09:26:00
4:53 AM,48.0,44.1,86,29.93,10.0,Variable,4.6,-,0.07,,Overcast,0,2013-12-06 09:53:00
5:32 AM,48.0,43.0,83,29.95,10.0,North,9.2,-,N/A,,Overcast,10,2013-12-06 10:32:00
5:53 AM,46.9,42.1,83,29.96,10.0,NE,6.9,-,0.00,Rain,Light Rain,40,2013-12-06 10:53:00
6:53 AM,46.0,42.1,86,29.99,10.0,NNW,4.6,-,0.01,,Overcast,340,2013-12-06 11:53:00
7:53 AM,45.0,42.1,90,30.01,6.0,North,4.6,-,0.02,Rain,Light Rain,10,2013-12-06 12:53:00
8:46 AM,44.1,41.0,89,30.04,7.0,NW,5.8,-,0.03,Rain,Light Rain,320,2013-12-06 13:46:00
8:53 AM,44.1,39.9,85,30.05,8.0,North,4.6,-,0.03,Rain,Light Rain,350,2013-12-06 13:53:00
9:40 AM,43.0,39.9,89,30.06,2.5,Calm,Calm,-,0.02,Rain,Light Rain,0,2013-12-06 14:40:00
9:53 AM,43.0,39.0,86,30.06,3.0,Variable,3.5,-,0.03,Rain,Light Rain,0,2013-12-06 14:53:00
10:03 AM,43.0,39.9,89,30.06,5.0,NNE,4.6,-,0.00,,Overcast,20,2013-12-06 15:03:00
10:13 AM,43.0,39.0,86,30.05,9.0,North,4.6,-,0.00,,Overcast,10,2013-12-06 15:13:00
10:53 AM,43.0,39.0,86,30.05,7.0,NW,3.5,-,0.02,,Overcast,320,2013-12-06 15:53:00
11:53 AM,42.1,37.9,85,30.07,10.0,North,6.9,-,N/A,,Overcast,360,2013-12-06 16:53:00
12:19 PM,42.1,37.0,82,30.05,10.0,NNE,6.9,-,N/A,,Overcast,20,2013-12-06 17:19:00
12:36 PM,42.1,37.0,82,30.06,8.0,Variable,3.5,-,N/A,,Overcast,0,2013-12-06 17:36:00
12:53 PM,42.1,37.0,82,30.05,10.0,Calm,Calm,-,N/A,,Overcast,0,2013-12-06 17:53:00
1:48 PM,42.8,35.6,76,30.04,10.0,Calm,Calm,-,N/A,,Overcast,0,2013-12-06 18:48:00
1:53 PM,42.1,36.0,79,30.04,10.0,North,3.5,-,N/A,,Overcast,10,2013-12-06 18:53:00
2:53 PM,42.1,34.0,73,30.05,10.0,Calm,Calm,-,N/A,,Overcast,0,2013-12-06 19:53:00
3:53 PM,41.0,36.0,82,30.04,10.0,Calm,Calm,-,0.01,Rain,Light Rain,0,2013-12-06 20:53:00
4:53 PM,39.9,34.0,79,30.08,9.0,Calm,Calm,-,0.02,Rain,Light Rain,0,2013-12-06 21:53:00
5:53 PM,39.0,34.0,82,30.10,10.0,North,3.5,-,0.02,,Overcast,360,2013-12-06 22:53:00
6:53 PM,37.9,34.0,86,30.11,9.0,Variable,3.5,-,0.03,Rain,Light Rain,0,2013-12-06 23:53:00
7:53 PM,37.0,35.1,93,30.14,3.0,North,3.5,-,0.07,Rain,Rain,360,2013-12-07 00:53:00
8:53 PM,36.0,34.0,93,30.10,7.0,Variable,3.5,-,0.12,,Overcast,0,2013-12-07 01:53:00
9:53 PM,36.0,34.0,93,30.13,7.0,NE,3.5,-,0.11,Rain,Light Rain,50,2013-12-07 02:53:00
10:53 PM,36.0,33.1,89,30.16,7.0,North,3.5,-,0.06,,Overcast,10,2013-12-07 03:53:00
11:03 PM,35.1,33.1,92,30.15,6.0,North,3.5,-,0.00,Rain,Light Rain,10,2013-12-07 04:03:00
11:53 PM,34.0,32.0,92,30.15,7.0,NNE,4.6,-,0.06,,Overcast,30,2013-12-07 04:53:00